Back to catalog

METEOR 1-17 DEB

AlivePO
NORAD 57538·DEBRIS·🇷🇺 Russia

Launched Apr 24, 1974 from Plesetsk Cosmodrome

Loading…

Next Passes (next 24 hours)

TLE

FreshSource: Space-Track

Epoch: Sep 13, 2026, 19:40 UTC

1 57538U 74025D   26256.81991489  .00002068  00000-0  85901-3 0  9998
2 57538  81.1944 192.3730 0021538 352.6885   7.3977 14.26051096163364

Track METEOR 1-17 DEB in real time with AllMySat

Download on the App Store